Regional Weather Roundup
Issued by NWS

Home | Current Version | Previous Version | Graphics & Text | Print | Product List | Glossary On
Versions: 1 2 3 4 5 6 7 8 9 10 11 12 13 14 15 16 17 18 19 20 21 22 23 24 25 26 27 28 29 30 31 32 33 34 35 36 37 38 39 40 41 42 43 44 45 46 47 48 49 50
000
ASUS44 KMEG 280500
RWRTN
TENNESSEE HOURLY STATE WEATHER ROUNDUP
NATIONAL WEATHER SERVICE MEMPHIS TN
1200 AM CDT TUE APR 28 2015

TNZ002-004-019-021-049-052-054-088>092-280600-
WEST TENNESSEE

CITY           SKY/WX    TMP DP  RH WIND       PRES   REMARKS
MEMPHIS INTL   PTCLDY    58  38  47 NE13      29.97S
NWS MEMPHIS      N/A     56 N/A N/A MISG        N/A
JACKSON        CLEAR     49  41  74 NE10      29.97F
DYERSBURG      CLEAR     52  34  50 NE5       30.03R
UNION CITY     CLEAR     48  32  53 NE6       30.01R
PARIS          CLEAR     45  39  81 N3        30.02R
LEXINGTON      CLEAR     48  37  66 N7        29.97F
SAVANNAH       CLEAR     48  32  53 NE7       29.97R
$$

TNZ008-025-027-028-033-062-065-066-280600-
NORTH MIDDLE TENNESSEE

CITY           SKY/WX    TMP DP  RH WIND       PRES   REMARKS
NASHVILLE      CLEAR     52  38  58 CALM      30.01R
CLARKSVILLE    PTCLDY    51  42  71 N12       30.00S
COOKEVILLE     CLEAR     41  39  93 SW6       30.00R
CROSSVILLE     CLEAR     45  35  68 CALM      30.01R
$$

TNZ061-075-076-078-094-096-097-280600-
SOUTH MIDDLE TENNESSEE

CITY           SKY/WX    TMP DP  RH WIND       PRES   REMARKS
FAYETTEVILLE   CLEAR     50  37  62 NE6       29.96R
TULLAHOMA      CLEAR     50  37  62 CALM      29.98R
WINCHESTER     CLEAR     46  43  87 CALM      29.98R
COLUMBIA       CLEAR     45  32  61 CALM      29.96F
SHELBYVILLE    CLEAR     45  43  93 N3        29.97F
$$

TNZ017-018-042-046-047-280600-
NORTHEAST TENNESSEE

CITY           SKY/WX    TMP DP  RH WIND       PRES   REMARKS
TRI CITIES     PTCLDY    41  36  82 CALM      29.96F
ELIZABETHTON   CLEAR     37  34  87 CALM      29.96F
$$

TNZ012-013-036-069-073-074-280600-
CENTRAL EAST TENNESSEE

CITY           SKY/WX    TMP DP  RH WIND       PRES   REMARKS
KNOXVILLE      PTCLDY    52  35  52 NE3       29.97R
OAK RIDGE      CLEAR     49  39  68 CALM      30.00R
GATLINBURG     CLEAR     43  39  87 CALM      29.98R
$$

TNZ083-085-099-280600-
SOUTHEAST TENNESSEE

CITY           SKY/WX    TMP DP  RH WIND       PRES   REMARKS
CHATTANOOGA    MOCLDY    56  38  50 N5        29.96R
$$

SKY/WX REPORTED AS FAIR MEANS FEW OR NO CLOUDS BELOW
12 THOUSAND FEET.



USA.gov is the U.S. government's official web portal to all federal, state and local government web resources and services.